| time (UTC) | temp F | wind direction | speed MPH | gust MPH | rain 1hr in | rain 24hr in | rain mn in | humidity % | barometer mb |
| 20260502205937 | 76 | 101 | 2.0 | 3.0 | 0.00 | 0.00 | 0.00 | 38 | 1022.3 |
| 20260502205433 | 77 | 333 | 4.0 | 8.0 | 0.00 | 0.00 | 0.00 | 38 | 1022.4 |
| 20260502204931 | 76 | 45 | 2.0 | 6.0 | 0.00 | 0.00 | 0.00 | 36 | 1022.5 |
| 20260502204427 | 77 | 89 | 3.0 | 7.0 | 0.00 | 0.00 | 0.00 | 37 | 1022.5 |
| 20260502203926 | 76 | 62 | 3.0 | 6.0 | 0.00 | 0.00 | 0.00 | 38 | 1022.5 |
| 20260502203423 | 76 | 35 | 3.0 | 4.0 | 0.00 | 0.00 | 0.00 | 39 | 1022.6 |
| 20260502202918 | 76 | 302 | 3.0 | 8.0 | 0.00 | 0.00 | 0.00 | 39 | 1022.6 |
| 20260502202415 | 76 | 311 | 3.0 | 8.0 | 0.00 | 0.00 | 0.00 | 38 | 1022.5 |
| 20260502201914 | 76 | 15 | 3.0 | 9.0 | 0.00 | 0.00 | 0.00 | 39 | 1022.7 |
| 20260502201409 | 76 | 33 | 2.0 | 3.0 | 0.00 | 0.00 | 0.00 | 37 | 1022.5 |
| 20260502200906 | 75 | 16 | 4.0 | 7.0 | 0.00 | 0.00 | 0.00 | 39 | 1022.6 |
| 20260502200401 | 75 | 347 | 3.0 | 4.0 | 0.00 | 0.00 | 0.00 | 40 | 1022.8 |
| 20260502195900 | 75 | 92 | 3.0 | 7.0 | 0.00 | 0.00 | 0.00 | 42 | 1022.7 |
| 20260502195356 | 75 | 6 | 4.0 | 8.0 | 0.00 | 0.00 | 0.00 | 40 | 1022.8 |
| 20260502194853 | 75 | 357 | 3.0 | 4.0 | 0.00 | 0.00 | 0.00 | 38 | 1022.9 |
| 20260502194350 | 75 | 354 | 2.0 | 9.0 | 0.00 | 0.00 | 0.00 | 39 | 1022.8 |
| 20260502193845 | 75 | 7 | 6.0 | 8.0 | 0.00 | 0.00 | 0.00 | 42 | 1022.9 |
| 20260502193343 | 75 | 342 | 8.0 | 11.0 | 0.00 | 0.00 | 0.00 | 40 | 1023.0 |
| 20260502192838 | 75 | 346 | 5.0 | 8.0 | 0.00 | 0.00 | 0.00 | 39 | 1022.6 |
| 20260502192336 | 75 | 98 | 3.0 | 6.0 | 0.00 | 0.00 | 0.00 | 42 | 1022.8 |
| 20260502191833 | 74 | 235 | 1.0 | 4.0 | 0.00 | 0.00 | 0.00 | 40 | 1022.8 |
| 20260502191331 | 75 | 348 | 4.0 | 6.0 | 0.00 | 0.00 | 0.00 | 41 | 1023.1 |
| 20260502190828 | 74 | 338 | 4.0 | 6.0 | 0.00 | 0.00 | 0.00 | 39 | 1023.1 |
| 20260502190325 | 76 | 351 | 8.0 | 10.0 | 0.00 | 0.00 | 0.00 | 39 | 1023.2 |
| 20260502185820 | 75 | 51 | 2.0 | 2.0 | 0.00 | 0.00 | 0.00 | 41 | 1023.3 |
| 20260502185316 | 74 | 95 | 5.0 | 7.0 | 0.00 | 0.00 | 0.00 | 41 | 1023.3 |
| 20260502184814 | 74 | 86 | 5.0 | 8.0 | 0.00 | 0.00 | 0.00 | 41 | 1023.4 |
| 20260502184309 | 74 | 351 | 5.0 | 7.0 | 0.00 | 0.00 | 0.00 | 43 | 1023.5 |
| 20260502183806 | 73 | 118 | 1.0 | 4.0 | 0.00 | 0.00 | 0.00 | 45 | 1023.6 |
| 20260502183302 | 73 | 84 | 4.0 | 9.0 | 0.00 | 0.00 | 0.00 | 45 | 1023.5 |
| 20260502182757 | 73 | 9 | 5.0 | 8.0 | 0.00 | 0.00 | 0.00 | 45 | 1023.6 |
| 20260502182253 | 73 | 297 | 4.0 | 8.0 | 0.00 | 0.00 | 0.00 | 47 | 1023.8 |
| 20260502181749 | 72 | 42 | 4.0 | 7.0 | 0.00 | 0.00 | 0.00 | 46 | 1024.0 |
| 20260502181249 | 72 | 337 | 3.0 | 6.0 | 0.00 | 0.00 | 0.00 | 46 | 1023.8 |
| 20260502180746 | 73 | 1 | 7.0 | 10.0 | 0.00 | 0.00 | 0.00 | 46 | 1023.9 |
| 20260502180243 | 73 | 354 | 4.0 | 7.0 | 0.00 | 0.00 | 0.00 | 46 | 1024.2 |
| 20260502170208 | 72 | 332 | 1.0 | 2.0 | 0.00 | 0.00 | 0.00 | 52 | 1024.9 |
| 20260502164154 | 71 | 6 | 4.0 | 6.0 | 0.00 | 0.00 | 0.00 | 54 | 1025.0 |
| 20260502163649 | 69 | 282 | 0.0 | 3.0 | 0.00 | 0.00 | 0.00 | 55 | 1025.2 |
| 20260502163147 | 68 | 312 | 3.0 | 6.0 | 0.00 | 0.00 | 0.00 | 57 | 1025.2 |
| 20260502162643 | 69 | 344 | 4.0 | 7.0 | 0.00 | 0.00 | 0.00 | 57 | 1024.9 |
| 20260502162141 | 69 | 337 | 3.0 | 6.0 | 0.00 | 0.00 | 0.00 | 57 | 1025.0 |
| 20260502161638 | 69 | 336 | 6.0 | 7.0 | 0.00 | 0.00 | 0.00 | 57 | 1025.0 |
| 20260502161135 | 69 | 345 | 3.0 | 8.0 | 0.00 | 0.00 | 0.00 | 57 | 1025.2 |
| 20260502160633 | 68 | 341 | 5.0 | 6.0 | 0.00 | 0.00 | 0.00 | 57 | 1025.1 |
| 20260502160131 | 68 | 341 | 4.0 | 7.0 | 0.00 | 0.00 | 0.00 | 57 | 1025.1 |
| 20260502152045 | 66 | 322 | 3.0 | 6.0 | 0.00 | 0.00 | 0.00 | 58 | 1024.7 |
| 20260502151542 | 65 | 306 | 2.0 | 3.0 | 0.00 | 0.00 | 0.00 | 62 | 1024.9 |
| 20260502151040 | 65 | 314 | 1.0 | 4.0 | 0.00 | 0.00 | 0.00 | 63 | 1024.7 |
| 20260502150537 | 65 | 323 | 1.0 | 2.0 | 0.00 | 0.00 | 0.00 | 61 | 1025.0 |
| 20260502130422 | 56 | 287 | 2.0 | 3.0 | 0.00 | 0.00 | 0.00 | 87 | 1023.8 |
| 20260502123405 | 53 | 279 | 1.0 | 2.0 | 0.00 | 0.00 | 0.00 | 94 | 1023.3 |
| 20260502122902 | 52 | 279 | 0.0 | 2.0 | 0.00 | 0.00 | 0.00 | 94 | 1023.2 |
| 20260502122358 | 52 | 298 | 3.0 | 3.0 | 0.00 | 0.00 | 0.00 | 95 | 1023.2 |
| 20260502121856 | 51 | 304 | 2.0 | 2.0 | 0.00 | 0.00 | 0.00 | 95 | 1023.0 |
| 20260502121353 | 51 | 284 | 0.0 | 2.0 | 0.00 | 0.00 | 0.00 | 95 | 1022.9 |
| 20260502120851 | 51 | 282 | 1.0 | 1.0 | 0.00 | 0.00 | 0.00 | 95 | 1022.9 |
| 20260502120346 | 50 | 288 | 1.0 | 1.0 | 0.00 | 0.00 | 0.00 | 95 | 1022.7 |
| 20260502115844 | 50 | 289 | 1.0 | 2.0 | 0.00 | 0.00 | 0.00 | 95 | 1022.7 |
| 20260502115341 | 50 | 323 | 1.0 | 1.0 | 0.00 | 0.00 | 0.00 | 95 | 1022.6 |
| 20260502114837 | 50 | 290 | 1.0 | 1.0 | 0.00 | 0.00 | 0.00 | 95 | 1022.8 |
| 20260502114334 | 50 | 300 | 1.0 | 1.0 | 0.00 | 0.00 | 0.00 | 95 | 1022.6 |
| 20260502113831 | 50 | 289 | 1.0 | 2.0 | 0.00 | 0.00 | 0.00 | 95 | 1022.7 |
| 20260502113329 | 51 | 310 | 1.0 | 2.0 | 0.00 | 0.00 | 0.00 | 95 | 1022.5 |
| 20260502112827 | 51 | 284 | 1.0 | 1.0 | 0.00 | 0.00 | 0.00 | 94 | 1022.3 |
| 20260502112324 | 51 | 269 | 0.0 | 1.0 | 0.00 | 0.00 | 0.00 | 94 | 1022.2 |
| 20260502111821 | 51 | 282 | 2.0 | 2.0 | 0.00 | 0.00 | 0.00 | 94 | 1022.2 |
| 20260502111319 | 51 | 281 | 1.0 | 2.0 | 0.00 | 0.00 | 0.00 | 94 | 1022.1 |
| 20260502110817 | 51 | 281 | 1.0 | 1.0 | 0.00 | 0.00 | 0.00 | 94 | 1021.8 |
| 20260502110314 | 51 | 276 | 1.0 | 1.0 | 0.00 | 0.00 | 0.00 | 94 | 1021.8 |
| 20260502105811 | 51 | 281 | 1.0 | 1.0 | 0.00 | 0.00 | 0.00 | 94 | 1021.7 |
| 20260502105308 | 51 | 278 | 1.0 | 1.0 | 0.00 | 0.00 | 0.00 | 93 | 1021.7 |
| 20260502104806 | 51 | 278 | 1.0 | 1.0 | 0.00 | 0.00 | 0.00 | 93 | 1021.3 |
| 20260502104303 | 51 | 287 | 1.0 | 2.0 | 0.00 | 0.00 | 0.00 | 93 | 1021.6 |
| 20260502103800 | 51 | 276 | 1.0 | 1.0 | 0.00 | 0.00 | 0.00 | 93 | 1021.4 |
| 20260502103257 | 51 | 273 | 1.0 | 1.0 | 0.00 | 0.00 | 0.00 | 92 | 1021.3 |
| 20260502102755 | 51 | 268 | 0.0 | 0.0 | 0.00 | 0.00 | 0.00 | 91 | 1021.5 |
| 20260502102251 | 51 | 272 | 0.0 | 1.0 | 0.00 | 0.00 | 0.00 | 91 | 1021.4 |
| 20260502101749 | 51 | 266 | 0.0 | 0.0 | 0.00 | 0.00 | 0.00 | 90 | 1021.6 |
| 20260502101247 | 51 | 279 | 0.0 | 1.0 | 0.00 | 0.00 | 0.00 | 90 | 1021.5 |
| 20260502100745 | 51 | 281 | 1.0 | 2.0 | 0.00 | 0.00 | 0.00 | 91 | 1021.5 |
| 20260502100243 | 51 | 281 | 0.0 | 1.0 | 0.00 | 0.00 | 0.00 | 91 | 1021.5 |
| 20260502091217 | 52 | 278 | 1.0 | 2.0 | 0.00 | 0.00 | 0.00 | 91 | 1021.1 |
| 20260502090715 | 51 | 269 | 0.0 | 1.0 | 0.00 | 0.00 | 0.00 | 92 | 1021.2 |
| 20260502090211 | 52 | 271 | 0.0 | 0.0 | 0.00 | 0.00 | 0.00 | 91 | 1021.1 |
| 20260502071113 | 52 | 313 | 1.0 | 2.0 | 0.00 | 0.00 | 0.00 | 91 | 1021.1 |
| 20260502070611 | 53 | 282 | 1.0 | 1.0 | 0.00 | 0.00 | 0.00 | 90 | 1021.3 |
| 20260502070109 | 53 | 277 | 0.0 | 1.0 | 0.00 | 0.00 | 0.00 | 90 | 1021.2 |
| 20260502065607 | 53 | 287 | 1.0 | 1.0 | 0.00 | 0.00 | 0.00 | 90 | 1021.3 |
| 20260502065104 | 53 | 280 | 0.0 | 1.0 | 0.00 | 0.00 | 0.00 | 90 | 1021.2 |
| 20260502064603 | 53 | 324 | 1.0 | 2.0 | 0.00 | 0.00 | 0.00 | 90 | 1021.1 |
| 20260502064059 | 53 | 329 | 2.0 | 3.0 | 0.00 | 0.00 | 0.00 | 90 | 1021.2 |
| 20260502063557 | 53 | 322 | 2.0 | 2.0 | 0.00 | 0.00 | 0.00 | 90 | 1021.3 |
| 20260502063055 | 53 | 315 | 1.0 | 2.0 | 0.00 | 0.00 | 0.00 | 90 | 1021.3 |
| 20260502062551 | 53 | 292 | 0.0 | 1.0 | 0.00 | 0.00 | 0.00 | 90 | 1021.3 |
| 20260502062049 | 53 | 275 | 0.0 | 1.0 | 0.00 | 0.00 | 0.00 | 89 | 1021.2 |
| 20260502061547 | 53 | 277 | 0.0 | 1.0 | 0.00 | 0.00 | 0.00 | 89 | 1021.3 |
| 20260502061044 | 53 | 319 | 2.0 | 2.0 | 0.00 | 0.00 | 0.00 | 89 | 1021.2 |
| 20260502060539 | 54 | 312 | 1.0 | 2.0 | 0.00 | 0.00 | 0.00 | 89 | 1021.2 |
| 20260502060036 | 54 | 311 | 1.0 | 2.0 | 0.00 | 0.00 | 0.00 | 89 | 1021.4 |
| 20260502055534 | 54 | 290 | 1.0 | 2.0 | 0.00 | 0.00 | 0.00 | 89 | 1021.4 |
| 20260502055032 | 53 | 307 | 1.0 | 2.0 | 0.00 | 0.00 | 0.00 | 90 | 1021.4 |
| 20260502054531 | 53 | 290 | 0.0 | 1.0 | 0.00 | 0.00 | 0.00 | 89 | 1021.3 |
| 20260502054027 | 54 | 299 | 1.0 | 1.0 | 0.00 | 0.00 | 0.00 | 89 | 1021.2 |
| 20260502053524 | 54 | 280 | 0.0 | 1.0 | 0.00 | 0.00 | 0.00 | 89 | 1021.1 |
| 20260502053022 | 54 | 307 | 1.0 | 1.0 | 0.00 | 0.00 | 0.00 | 89 | 1021.0 |
| 20260502052520 | 54 | 289 | 0.0 | 1.0 | 0.00 | 0.00 | 0.00 | 89 | 1021.3 |
| 20260502052018 | 54 | 276 | 0.0 | 1.0 | 0.00 | 0.00 | 0.00 | 89 | 1021.0 |
| 20260502051516 | 54 | 277 | 0.0 | 0.0 | 0.00 | 0.00 | 0.00 | 88 | 1021.1 |
| 20260502051013 | 54 | 280 | 0.0 | 0.0 | 0.00 | 0.00 | 0.00 | 88 | 1021.2 |
| 20260502050509 | 55 | 280 | 0.0 | 0.0 | 0.00 | 0.00 | 0.00 | 87 | 1021.3 |
| 20260502050007 | 55 | 280 | 0.0 | 0.0 | 0.00 | 0.87 | 0.87 | 87 | 1021.3 |
| 20260502045503 | 55 | 285 | 0.0 | 1.0 | 0.00 | 0.87 | 0.87 | 87 | 1021.2 |
| 20260502045000 | 55 | 280 | 1.0 | 1.0 | 0.00 | 0.87 | 0.87 | 87 | 1021.1 |
| 20260502044456 | 54 | 276 | 1.0 | 1.0 | 0.00 | 0.87 | 0.87 | 88 | 1020.9 |
| 20260502043953 | 55 | 272 | 0.0 | 0.0 | 0.00 | 0.87 | 0.87 | 87 | 1021.0 |
| 20260502043451 | 55 | 272 | 0.0 | 0.0 | 0.00 | 0.87 | 0.87 | 86 | 1020.8 |
| 20260502042950 | 55 | 272 | 0.0 | 0.0 | 0.00 | 0.87 | 0.87 | 85 | 1020.9 |
| 20260502042447 | 56 | 272 | 0.0 | 0.0 | 0.00 | 0.87 | 0.87 | 83 | 1020.8 |
| 20260502041945 | 56 | 272 | 0.0 | 0.0 | 0.00 | 0.87 | 0.87 | 82 | 1021.0 |
| 20260502041442 | 57 | 288 | 0.0 | 1.0 | 0.00 | 0.87 | 0.87 | 81 | 1021.2 |
| 20260502040939 | 57 | 322 | 0.0 | 2.0 | 0.00 | 0.87 | 0.87 | 80 | 1020.9 |
| 20260502040435 | 57 | 348 | 1.0 | 2.0 | 0.00 | 0.87 | 0.87 | 80 | 1020.8 |
| 20260502035932 | 57 | 341 | 2.0 | 3.0 | 0.00 | 0.87 | 0.87 | 79 | 1020.8 |
| 20260502035428 | 57 | 284 | 1.0 | 2.0 | 0.00 | 0.87 | 0.87 | 79 | 1020.7 |
| 20260502034926 | 57 | 341 | 2.0 | 3.0 | 0.00 | 0.87 | 0.87 | 79 | 1021.0 |
| 20260502034425 | 57 | 344 | 1.0 | 2.0 | 0.00 | 0.87 | 0.87 | 79 | 1020.9 |
| 20260502033922 | 57 | 35 | 1.0 | 2.0 | 0.00 | 0.87 | 0.87 | 78 | 1020.8 |
| 20260502033420 | 58 | 0 | 1.0 | 2.0 | 0.00 | 0.87 | 0.87 | 78 | 1020.9 |
| 20260502032916 | 58 | 43 | 2.0 | 2.0 | 0.00 | 0.87 | 0.87 | 77 | 1020.9 |
| 20260502032413 | 58 | 11 | 1.0 | 3.0 | 0.00 | 0.87 | 0.87 | 78 | 1020.8 |
| 20260502031910 | 58 | 332 | 1.0 | 2.0 | 0.00 | 0.87 | 0.87 | 78 | 1020.7 |
| 20260502031409 | 58 | 350 | 2.0 | 3.0 | 0.00 | 0.87 | 0.87 | 77 | 1020.7 |
| 20260502030907 | 58 | 30 | 2.0 | 2.0 | 0.00 | 0.87 | 0.87 | 77 | 1020.7 |
| 20260502030404 | 58 | 348 | 1.0 | 2.0 | 0.00 | 0.87 | 0.87 | 77 | 1020.7 |
| 20260502025902 | 58 | 10 | 1.0 | 2.0 | 0.00 | 0.87 | 0.87 | 77 | 1020.6 |
| 20260502025359 | 58 | 352 | 3.0 | 4.0 | 0.00 | 0.87 | 0.87 | 76 | 1020.6 |
| 20260502024857 | 58 | 352 | 2.0 | 4.0 | 0.00 | 0.87 | 0.87 | 77 | 1020.3 |
| 20260502024354 | 58 | 340 | 3.0 | 4.0 | 0.00 | 0.87 | 0.87 | 78 | 1020.5 |
| 20260502023852 | 58 | 357 | 2.0 | 3.0 | 0.00 | 0.87 | 0.87 | 79 | 1020.2 |
| 20260502023349 | 57 | 335 | 2.0 | 3.0 | 0.00 | 0.87 | 0.87 | 79 | 1020.1 |
| 20260502022847 | 57 | 329 | 2.0 | 3.0 | 0.00 | 0.87 | 0.87 | 80 | 1020.1 |
| 20260502022343 | 57 | 292 | 0.0 | 1.0 | 0.00 | 0.87 | 0.87 | 81 | 1020.0 |
| 20260502021840 | 57 | 318 | 1.0 | 2.0 | 0.00 | 0.87 | 0.87 | 81 | 1020.0 |
| 20260502021337 | 57 | 332 | 2.0 | 2.0 | 0.00 | 0.87 | 0.87 | 81 | 1019.4 |
| 20260502020835 | 57 | 16 | 1.0 | 1.0 | 0.00 | 0.87 | 0.87 | 80 | 1019.4 |
| 20260502020332 | 57 | 0 | 1.0 | 2.0 | 0.00 | 0.87 | 0.87 | 80 | 1019.4 |
| 20260502015829 | 57 | 311 | 1.0 | 1.0 | 0.00 | 0.87 | 0.87 | 80 | 1019.4 |
| 20260502015326 | 57 | 334 | 1.0 | 2.0 | 0.00 | 0.87 | 0.87 | 80 | 1019.5 |
| 20260502014824 | 58 | 27 | 1.0 | 2.0 | 0.00 | 0.87 | 0.87 | 80 | 1019.6 |
| 20260502014320 | 58 | 327 | 0.0 | 2.0 | 0.00 | 0.87 | 0.87 | 80 | 1019.2 |
| 20260502013816 | 57 | 354 | 2.0 | 3.0 | 0.00 | 0.87 | 0.87 | 79 | 1019.2 |
| 20260502013312 | 58 | 12 | 1.0 | 2.0 | 0.00 | 0.87 | 0.87 | 79 | 1019.1 |
| 20260502012809 | 58 | 353 | 1.0 | 2.0 | 0.00 | 0.87 | 0.87 | 78 | 1018.9 |
| 20260502012307 | 58 | 337 | 0.0 | 1.0 | 0.00 | 0.87 | 0.87 | 78 | 1018.8 |
| 20260502011804 | 58 | 354 | 3.0 | 4.0 | 0.00 | 0.87 | 0.87 | 77 | 1018.8 |
| 20260502011300 | 58 | 11 | 3.0 | 3.0 | 0.00 | 0.87 | 0.87 | 77 | 1018.7 |
| 20260502010757 | 58 | 311 | 1.0 | 2.0 | 0.00 | 0.87 | 0.87 | 77 | 1018.8 |
| 20260502010253 | 58 | 332 | 1.0 | 3.0 | 0.00 | 0.87 | 0.87 | 77 | 1018.6 |
| 20260502005751 | 58 | 4 | 2.0 | 3.0 | 0.00 | 0.87 | 0.87 | 77 | 1018.5 |
| 20260502005248 | 58 | 343 | 2.0 | 3.0 | 0.00 | 0.87 | 0.87 | 77 | 1018.4 |
| 20260502004745 | 58 | 48 | 1.0 | 6.0 | 0.00 | 0.87 | 0.87 | 77 | 1018.4 |
| 20260502004241 | 58 | 53 | 3.0 | 7.0 | 0.00 | 0.87 | 0.87 | 76 | 1018.1 |
| 20260502003739 | 59 | 339 | 1.0 | 4.0 | 0.00 | 0.87 | 0.87 | 76 | 1018.2 |
| 20260502003237 | 59 | 4 | 2.0 | 4.0 | 0.00 | 0.87 | 0.87 | 75 | 1018.1 |
| 20260502002732 | 59 | 60 | 3.0 | 4.0 | 0.00 | 0.87 | 0.87 | 75 | 1018.2 |
| 20260502002230 | 59 | 34 | 4.0 | 8.0 | 0.00 | 0.87 | 0.87 | 74 | 1018.0 |
| 20260502001727 | 59 | 5 | 4.0 | 7.0 | 0.00 | 0.87 | 0.87 | 74 | 1017.8 |
| 20260502001225 | 59 | 39 | 1.0 | 3.0 | 0.00 | 0.87 | 0.87 | 74 | 1017.9 |
| 20260502000722 | 60 | 57 | 5.0 | 8.0 | 0.00 | 0.87 | 0.87 | 73 | 1018.0 |
| 20260502000220 | 60 | 353 | 5.0 | 7.0 | 0.00 | 0.87 | 0.87 | 74 | 1017.9 |
| 20260501235715 | 60 | 48 | 5.0 | 8.0 | 0.00 | 0.87 | 0.87 | 73 | 1017.7 |
| 20260501235212 | 60 | 13 | 4.0 | 4.0 | 0.00 | 0.87 | 0.87 | 74 | 1017.6 |
| 20260501234708 | 60 | 30 | 6.0 | 8.0 | 0.00 | 0.87 | 0.87 | 75 | 1017.7 |
| 20260501234205 | 59 | 53 | 1.0 | 7.0 | 0.00 | 0.87 | 0.87 | 77 | 1017.7 |
| 20260501233703 | 59 | 352 | 4.0 | 6.0 | 0.00 | 0.87 | 0.87 | 78 | 1017.6 |
| 20260501233200 | 58 | 55 | 3.0 | 6.0 | 0.00 | 0.87 | 0.87 | 78 | 1017.9 |
| 20260501232655 | 59 | 338 | 3.0 | 7.0 | 0.00 | 0.87 | 0.87 | 77 | 1018.0 |
| 20260501232153 | 59 | 59 | 3.0 | 4.0 | 0.00 | 0.87 | 0.87 | 77 | 1018.1 |
| 20260501231651 | 59 | 46 | 1.0 | 4.0 | 0.00 | 0.87 | 0.87 | 77 | 1017.9 |
| 20260501231149 | 58 | 8 | 2.0 | 2.0 | 0.00 | 0.87 | 0.87 | 78 | 1017.5 |
| 20260501230647 | 58 | 357 | 4.0 | 7.0 | 0.00 | 0.87 | 0.87 | 77 | 1017.5 |
| 20260501230145 | 58 | 66 | 3.0 | 4.0 | 0.00 | 0.87 | 0.87 | 79 | 1017.9 |
| 20260501225642 | 58 | 1 | 6.0 | 8.0 | 0.00 | 0.87 | 0.87 | 78 | 1018.0 |
| 20260501225138 | 58 | 8 | 1.0 | 3.0 | 0.00 | 0.87 | 0.87 | 80 | 1018.1 |
| 20260501224635 | 58 | 79 | 2.0 | 3.0 | 0.00 | 0.87 | 0.87 | 80 | 1018.1 |
| 20260501224132 | 58 | 327 | 0.0 | 3.0 | 0.00 | 0.87 | 0.87 | 80 | 1017.8 |
| 20260501223629 | 58 | 8 | 3.0 | 6.0 | 0.00 | 0.87 | 0.87 | 80 | 1017.5 |
| 20260501223125 | 58 | 19 | 1.0 | 3.0 | 0.00 | 0.87 | 0.87 | 80 | 1017.4 |
| 20260501222621 | 58 | 18 | 3.0 | 7.0 | 0.00 | 0.87 | 0.87 | 79 | 1017.5 |
| 20260501222118 | 58 | 39 | 3.0 | 4.0 | 0.00 | 0.87 | 0.87 | 78 | 1017.4 |
| 20260501221615 | 58 | 332 | 3.0 | 9.0 | 0.00 | 0.87 | 0.87 | 78 | 1017.0 |
| 20260501221113 | 58 | 2 | 4.0 | 9.0 | 0.00 | 0.87 | 0.87 | 78 | 1017.1 |
| 20260501220611 | 58 | 68 | 4.0 | 11.0 | 0.00 | 0.87 | 0.87 | 77 | 1016.6 |
| 20260501220107 | 58 | 39 | 6.0 | 15.0 | 0.00 | 0.87 | 0.87 | 77 | 1016.5 |
| 20260501215604 | 58 | 32 | 4.0 | 13.0 | 0.00 | 0.87 | 0.87 | 78 | 1016.6 |
| 20260501215059 | 58 | 23 | 6.0 | 9.0 | 0.00 | 0.87 | 0.87 | 80 | 1016.4 |
| 20260501214554 | 58 | 36 | 9.0 | 15.0 | 0.00 | 0.87 | 0.87 | 79 | 1016.6 |
| 20260501214050 | 58 | 336 | 8.0 | 16.0 | 0.00 | 0.87 | 0.87 | 80 | 1016.4 |
| 20260501213547 | 58 | 353 | 6.0 | 10.0 | 0.00 | 0.87 | 0.87 | 81 | 1016.1 |
| 20260501213043 | 57 | 10 | 5.0 | 10.0 | 0.00 | 0.87 | 0.87 | 83 | 1016.2 |
| 20260501212540 | 57 | 11 | 6.0 | 10.0 | 0.00 | 0.87 | 0.87 | 84 | 1016.0 |
| 20260501212037 | 57 | 54 | 4.0 | 9.0 | 0.00 | 0.87 | 0.87 | 84 | 1016.3 |
| 20260501211533 | 57 | 68 | 6.0 | 9.0 | 0.00 | 0.87 | 0.87 | 84 | 1016.3 |
| 20260501211032 | 57 | 334 | 9.0 | 15.0 | 0.00 | 0.87 | 0.87 | 85 | 1016.3 |
| 20260501210527 | 57 | 2 | 10.0 | 21.0 | 0.00 | 0.87 | 0.87 | 85 | 1016.3 |